User: anonymous   Login
Location: Kaiser
(34.0939°N, 117.4889°W)
Time: 23:28:40
(UTC+00:00)
Language:

Cosmos 2026 Rocket - Orbit

View from above orbital plane
View from above orbital plane
View from above satellite
View from above satellite

Ground track
Ground track

The orbit data is extracted from the following two-line orbital elements,

1 20046U 89042B   21018.41408179  .00000111  00000-0  94349-4 0  9997
2 20046  82.9359  45.9348 0041793 353.6213   6.4407 13.78209278589651
Epoch (UTC): 18 January 2021 09:56:16
Eccentricity: 0.0041793
inclination: 82.9359°
perigee height: 939 km
apogee height: 1001 km
right ascension of ascending node: 45.9348°
argument of perigee: 353.6213°
revolutions per day: 13.78209278
mean anomaly at epoch: 6.4407°
orbit number at epoch: 58965

The dashed part of the orbit path shows where the satellite is in the earth's shadow,  

DLR